Regional Weather Roundup
Issued by NWS New Orleans/Baton Rouge, LA

Home | Current Version | Previous Version | Text Only | Print | Product List | Glossary Off
Versions: 1 2 3 4 5 6 7 8 9 10 11 12 13 14 15 16 17 18 19 20 21 22 23 24 25 26 27 28 29 30 31 32 33 34 35 36 37 38 39 40 41 42 43 44 45 46 47 48 49 50

190
ASUS44 KLIX 150005
RWRLIX
NEW ORLEANS REGIONAL WEATHER ROUNDUP
NATIONAL WEATHER SERVICE NEW ORLEANS LA
700 PM CDT SUN SEP 14 2014

NOTE: "FAIR" INDICATES FEW OR NO CLOUDS BELOW 12,000 FEET WITH NO
      SIGNIFICANT WEATHER AND/OR OBSTRUCTIONS TO VISIBILITY.
      SKY/WX - SKY CONDITION AND SIGNIFICANT WEATHER.
      TMP - AIR TEMPERATURE.     DP    - DEWPOINT TEMPERATURE.
      RH  - RELATIVE HUMIDITY.   PRES  - PRESSURE.
      HI  - HEAT INDEX.          WCI   - WIND CHILL INDEX.

*  THESE STATIONS ARE NOT NWS OR FAA STATIONS AND ARE NOT UNDER
   NWS QUALITY CONTROL.

LAZ038-040-048-061>063-065>067-069-150100-
SOUTHEAST LOUISIANA

CITY           SKY/WX    TMP DP  RH WIND       PRES   REMARKS
N.O. AUDUBON     N/A     87  75  67 MISG        N/A  HX  97
6HR MIN TEMP:  87; 6HR MAX TEMP:  91;

N.O. INTL ARPT PTCLDY    86  72  62 E7        30.04S
6HR MIN TEMP:  84; 6HR MAX TEMP:  90;

N.O. LAKEFRONT CLEAR     85  74  69 E7        30.05R
6HR MIN TEMP:  83; 6HR MAX TEMP:  88;

N.O. DOWNTOWN*   N/A     86  72  62 E5        30.05R
6HR MIN TEMP:  82; 6HR MAX TEMP:  90;

SLIDELL        CLEAR     85  74  69 S5        30.05R
6HR MIN TEMP:  85; 6HR MAX TEMP:  91;

BATON ROUGE    CLEAR     82  72  71 MISG      30.06R
6HR MIN TEMP:  82; 6HR MAX TEMP:  88;

BOOTHVILLE     MOCLDY    84  76  76 E6        30.05R
6HR MIN TEMP:  76; 6HR MAX TEMP:  86; 6HR PCP:  0.14;

BELLE CHASSE   CLEAR     84  73  69 E5        30.04R
6HR MIN TEMP:  84; 6HR MAX TEMP:  89;

BOGALUSA*        N/A     84  73  71 N3        30.07S
6HR MIN TEMP:  84; 6HR MAX TEMP:  91;

GALLIANO*      NOT AVBL
NEW ROADS*       N/A     78  71  80 N7        30.07S
6HR MIN TEMP:  76; 6HR MAX TEMP:  82;

GONZALES*        N/A     83  79  88 CALM      30.05R
6HR MIN TEMP:  82; 6HR MAX TEMP:  89;

HAMMOND*       MOCLDY    84  72  65 CALM      30.07R
HOUMA*         PTCLDY    86  72  62 NE6       30.04R
PORT FOURCHON* CLEAR     84  75  74 E13       30.06S

$$

MSZ070-080>082-150100-
SOUTHERN MISSISSIPPI

CITY           SKY/WX    TMP DP  RH WIND       PRES   REMARKS
MCCOMB         CLEAR     83  70  64 N3        30.08S
6HR MIN TEMP:  81; 6HR MAX TEMP:  87;

GULFPORT       PTCLDY    86  75  69 SE9       30.05R HX  95
6HR MIN TEMP:  86; 6HR MAX TEMP:  91;

BILOXI         MOCLDY    84  76  76 E5        30.05S
6HR MIN TEMP:  84; 6HR MAX TEMP:  92;

PASCAGOULA     MOCLDY    80  76  87 CALM      30.06R
6HR MIN TEMP:  80; 6HR MAX TEMP:  91; 6HR PCP: TRACE;


$$

COASTAL OBSERVATIONS
LAKE AND NEARSHORE STATIONS

STATION/POSITION TIME  TEMP    WIND        PRES    WAVE
                       AIR SEA DIR/SP/G            HT/PER
                 (UTC) (F)     (DEG/KT/KT) (MB)    (FT/S)
PASCAGOULA       0000   86     140/  6/  9 1017.3
WAVELAND YACHT   0000   85     140/  6/  8 1017.0
GRAND ISLE       0000   84 86   90/ 10/ 14 1017.7
SOUTHWEST PASS   0000   85 91   70/ 14/ 16 1017.2
NEW CANAL        0000   85 83  100/  1/  4 1017.8
SHELL BEACH      0000   84 80  100/  7/  9 1017.3

OFFSHORE STATIONS

STATION/POSITION TIME  TEMP    WIND        PRES    WAVE
                       AIR SEA DIR/SP/G            HT/PER
                 (UTC) (F)     (DEG/KT/KT) (MB)    (FT/S)
64 S DAUPHIN ISL 2250   83 87   90/ 14/ 16 1017.7    4/ 7

$$




USA.gov is the U.S. government's official web portal to all federal, state and local government web resources and services.